SCP
0 0 -0 -0 0 0 0 0 0 0 -0 -0 0 0 2 4 2 1 0 1 1 2 1 0 0 0 0 0 0 1 1 0 0 1 1 1 1 1 1 1 2 1 2 2
0 -0 -0 0 0 0 0 0 0 0 -0 1 3 2 0 0 0 0 0 0 0 0 2 3 2 1 0 0 0 0 1 1 1 1 1 1 1 1 1 1 1 2 1 2
-0 -0 0 -0 0 -0 0 0 0 0 0 2 4 1 0 0 0 0 0 0 0 0 1 1 1 1 2 2 1 0 1 1 1 1 1 1 1 1 1 1 1 1 2 1
-0 -0 -0 -0 -0 -0 -0 -0 0 0 4 4 1 0 0 0 0 0 0 0 0 0 0 0 0 2 2 2 4 2 2 2 2 1 1 1 1 0 1 1 1 2 1 1
0 0 0 0 -0 -0 -0 0 0 1 2 1 0 0 0 0 0 0 0 0 0 0 0 0 0 0 1 1 1 1 2 2 3 2 2 2 1 1 1 2 2 2 2 1
0 0 0 -0 0 -0 -0 0 0 0 1 0 1 1 0 0 0 0 0 0 0 0 0 0 0 0 1 0 0 0 0 1 1 2 2 1 1 1 2 2 3 2 1 1
0 0 -0 0 0 -0 -0 0 0 0 0 1 0 0 0 0 0 0 0 0 0 0 0 0 0 0 0 0 0 0 0 0 0 1 1 0 1 1 1 1 1 0 0 0
0 0 0 0 -0 -0 -0 -0 0 0 0 0 0 0 0 0 0 0 0 0 0 0 0 0 0 0 0 0 0 0 1 0 0 0 0 0 0 0 0 0 0 0 0 0
0 0 0 0 0 0 0 0 -0 0 0 0 0 0 0 0 0 0 0 0 0 0 0 0 0 0 0 0 0 0 0 0 0 -0 -0 0 0 0 0 0 0 0 0 0
0 0 0 0 0 0 0 0 0 0 0 0 0 0 0 0 0 0 0 0 0 0 0 0 0 0 0 0 0 0 0 1 1 1 0 0 0 0 0 0 0 0 0 0
0 -0 0 0 0 0 0 -0 -0 0 0 0 0 0 0 0 0 0 0 0 0 0 0 0 0 0 0 0 0 0 0 0 0 0 0 1 0 0 0 0 0 0 0 0
-0 -0 0 0 0 0 0 -0 -0 0 -0 0 -0 0 0 0 0 0 0 0 0 0 0 0 0 0 0 0 0 0 0 0 0 0 0 0 0 0 0 0 0 0 0 0
-0 -0 0 0 0 0 0 0 0 0 0 0 0 0 0 0 0 0 0 0 0 0 0 0 0 0 0 0 0 0 0 0 0 0 0 0 0 0 0 0 0 0 0 0
-0 -0 0 -0 0 0 0 0 0 0 0 0 0 0 0 0 0 0 0 0 0 0 0 0 0 0 0 0 0 0 0 0 0 0 0 0 0 0 0 0 0 0 0 0
0 0 0 0 -0 0 0 0 0 0 0 0 0 0 0 0 0 0 0 0 0 0 0 0 0 0 0 0 0 0 0 0 0 0 0 0 0 0 0 0 0 0 0 0
-0 0 -0 -0 0 0 0 0 0 0 0 0 0 0 0 0 0 0 0 0 0 0 0 0 0 0 0 0 0 0 0 0 0 0 0 0 0 0 0 0 0 0 0 0
0 0 0 0 0 0 0 0 0 0 0 0 0 0 0 0 0 0 0 0 0 0 0 0 0 0 0 0 0 0 0 0 0 0 0 0 0 0 0 0 0 0 0 0
-0 -0 0 0 0 0 0 0 0 0 0 0 0 0 0 0 0 0 0 0 0 0 0 0 0 0 0 0 0 0 0 0 0 0 0 0 0 0 0 0 0 0 0 0
0 0 0 -0 0 0 0 0 0 0 0 0 0 0 0 0 0 0 0 0 0 0 0 -0 -0 0 0 0 0 0 0 0 0 0 0 0 0 0 0 0 0 0 0 0
0 0 0 0 -0 0 0 0 0 0 0 0 0 0 0 0 0 0 0 0 0 0 -0 -0 -0 -0 -0 -0 0 0 0 0 0 0 0 0 0 0 0 0 0 0 0 0
0 0 0 0 0 0 0 0 0 0 0 0 0 0 0 0 0 0 0 0 0 0 -0 -0 -0 -0 0 0 0 0 0 0 0 0 0 0 0 0 0 0 0 0 0 0
0 0 0 0 0 0 0 0 0 0 0 0 0 0 0 0 0 0 0 0 0 0 0 0 -0 -0 0 0 0 -0 0 0 0 0 0 0 0 0 0 0 0 0 0 0
0 0 0 0 0 0 0 0 0 0 0 0 0 0 0 0 -0 -0 0 0 0 0 0 0 -0 0 0 0 0 0 0 0 0 0 0 0 0 0 0 0 0 0 -0 0
0 0 0 0 0 0 0 0 -0 -0 0 0 0 0 0 0 0 -0 0 0 0 0 0 0 -0 0 0 0 0 0 0 0 0 0 0 0 0 0 0 0 0 0 0 0
0 0 0 0 0 0 0 0 0 0 0 0 0 0 0 0 0 0 0 0 0 0 0 0 0 0 0 0 0 0 0 0 0 0 0 0 0 0 0 0 0 0 0 0
0 0 0 0 0 0 0 0 0 0 0 0 0 0 0 0 0 0 0 0 0 0 0 0 0 0 0 0 0 0 0 0 0 0 0 0 0 0 0 0 0 0 0 0
0 0 0 0 0 0 0 0 0 0 0 0 0 0 0 0 0 0 0 0 0 0 0 0 0 0 0 0 0 0 0 0 0 0 0 0 0 0 0 0 0 0 0 0
Wind_Speed_500mb
33 39 32 36 44 41 33 31 19 22 12 10 25 18 34 39 67 57 51 46 45 47 76 85 93 99 95 94 94 85 78 74 66 54 60 62 60 59 67 78 74 68 64 63
35 35 36 40 49 36 31 35 17 8 8 35 55 52 61 53 44 60 61 49 53 61 61 55 42 88 98 96 97 88 83 79 70 62 59 62 62 55 56 60 72 72 66 58
21 26 36 22 21 38 40 37 27 14 15 38 25 39 31 34 42 32 29 37 41 62 72 80 50 57 64 85 90 86 80 76 70 65 59 57 61 60 58 58 57 56 57 54
23 24 23 16 29 25 28 33 54 10 32 30 44 44 53 52 37 24 5 9 25 32 42 35 32 45 51 47 66 67 68 66 65 63 59 56 59 63 64 59 58 59 53 53
17 17 27 38 16 13 16 27 42 24 22 46 61 61 39 31 30 23 17 21 31 26 26 16 22 15 34 37 37 42 38 37 50 56 56 60 63 67 66 65 66 59 60 55
19 13 22 5 23 23 17 3 47 49 2 12 18 11 6 13 24 22 28 29 26 25 23 25 24 16 29 29 26 38 37 37 38 36 45 53 59 64 69 70 69 67 65 53
24 18 11 6 25 26 9 12 45 52 47 20 12 24 39 27 26 23 24 29 26 23 16 16 14 14 16 15 16 31 41 38 35 38 45 55 59 63 68 70 62 43 55 50
11 16 22 41 16 2 11 22 36 38 46 44 45 40 37 31 30 30 31 32 33 32 32 26 19 11 7 4 5 8 26 29 37 35 38 36 43 46 54 47 47 41 59 55
2 9 20 28 10 8 5 40 42 44 29 31 29 34 35 30 25 27 32 35 37 37 35 38 28 24 21 18 8 6 3 3 3 7 16 24 32 21 23 27 36 43 61 56
7 10 28 31 27 4 22 42 45 36 23 17 8 29 34 45 46 43 41 40 38 38 37 33 27 23 17 17 19 22 18 18 15 15 5 7 6 13 17 22 25 29 30 34
4 3 34 39 29 10 24 37 48 43 25 18 15 18 30 37 39 39 39 33 29 29 28 26 24 23 16 20 23 28 24 18 16 17 10 8 4 8 25 21 24 21 19 19
8 15 10 46 20 5 27 46 46 42 21 20 19 22 23 34 37 38 35 35 33 31 33 32 30 29 22 13 14 15 16 18 25 21 11 8 13 14 4 10 15 13 9 5
13 17 17 29 16 14 21 33 47 49 38 34 22 18 21 31 34 29 30 29 26 26 22 20 24 31 30 16 7 2 7 5 6 12 17 21 15 9 14 13 15 15 12 12
5 14 7 15 7 22 25 27 26 34 33 28 21 19 19 20 21 23 24 19 12 11 9 9 9 14 19 30 26 12 8 12 15 10 9 12 16 16 12 15 23 20 16 16
3 15 6 4 13 22 22 13 24 25 19 16 12 20 23 26 20 17 13 9 7 4 3 7 7 4 3 7 19 25 18 4 13 17 22 25 20 19 19 26 22 26 25 32
8 26 20 18 14 15 16 18 19 20 19 19 20 19 18 15 11 10 5 7 8 11 12 14 19 20 21 20 19 18 21 12 20 24 22 26 25 24 27 20 23 20 22 27
12 9 19 16 22 20 19 20 19 15 16 17 21 18 14 11 11 11 12 13 15 11 15 21 23 21 22 31 25 27 23 23 24 14 25 30 35 27 32 31 31 27 27 25
12 12 18 17 20 22 20 20 20 17 14 13 13 14 12 17 18 15 16 17 14 13 26 33 26 19 20 27 27 28 30 32 35 31 26 25 23 23 44 34 34 35 37 30
20 17 14 17 14 17 17 16 12 10 14 11 9 11 12 16 18 16 20 13 8 18 30 42 41 27 20 24 23 31 36 39 39 50 55 57 49 33 24 40 50 33 31 38
10 26 20 15 13 14 15 10 6 8 5 3 1 1 3 7 11 11 16 17 22 17 25 37 45 41 39 37 35 27 22 27 31 39 48 55 59 48 33 28 22 28 29 30
17 17 17 17 14 10 9 9 9 7 8 8 8 10 13 16 19 21 18 19 21 21 24 34 38 31 33 38 42 29 16 24 30 40 44 38 35 34 31 24 14 5 14 20
19 18 17 15 15 13 12 13 16 15 16 18 17 18 21 24 26 31 28 28 32 31 29 32 30 24 25 31 34 36 38 31 27 27 29 32 34 36 35 32 33 30 21 27
19 18 17 17 15 16 17 16 17 21 23 24 24 27 30 32 32 29 25 27 19 23 26 32 28 22 24 30 33 39 35 31 32 30 26 27 33 41 47 46 42 49 64 54
15 19 16 17 17 17 19 23 25 28 30 32 36 37 31 36 33 29 26 14 26 22 27 33 17 24 32 35 37 36 37 35 33 31 26 21 17 30 42 34 25 34 38 42
13 14 17 18 19 23 29 33 35 34 33 35 42 42 43 41 39 35 35 37 33 31 37 31 27 31 38 44 38 41 42 39 40 45 46 45 41 35 34 39 45 40 37 37
12 16 20 26 23 28 34 35 41 43 46 32 31 20 15 19 28 39 45 27 32 43 39 36 33 33 45 49 48 44 44 45 49 53 45 44 46 45 43 42 50 49 55 53
18 20 26 22 29 33 34 30 29 32 33 23 19 25 28 32 35 34 24 25 36 33 29 37 36 37 39 39 47 47 40 36 37 42 39 42 40 39 38 43 45 47 53 58
Wind_Direction_500mb
297 290 318 309 302 301 309 298 220 244 266 236 189 128 96 77 50 7 347 79 109 163 181 182 186 193 201 206 209 212 212 212 217 225 229 228 228 230 228 227 234 235 239 249
313 309 318 300 305 290 292 291 261 252 355 88 94 65 69 77 86 20 351 21 79 107 154 155 181 198 202 205 207 209 210 215 218 224 228 231 231 231 231 229 231 240 245 246
280 314 315 301 349 360 341 305 289 207 136 110 69 94 101 91 84 55 344 346 68 95 114 142 200 194 196 205 207 209 212 215 218 222 227 234 234 235 233 234 237 236 241 249
272 314 290 261 36 17 331 20 352 43 97 107 102 88 86 117 141 169 201 49 59 96 105 112 132 147 163 171 194 207 214 217 221 223 229 237 238 236 234 234 235 239 239 247
247 263 279 293 19 14 6 322 358 10 80 106 105 87 56 96 126 133 105 72 69 77 112 140 168 149 163 180 193 194 199 216 223 226 234 239 240 239 232 233 233 230 234 244
254 275 270 47 4 321 290 265 351 350 207 146 176 87 132 98 85 70 75 66 66 80 80 95 113 183 192 217 262 240 241 232 228 228 238 235 237 234 228 227 229 236 238 249
225 244 264 6 329 301 22 316 330 3 17 63 66 91 127 117 102 85 71 73 68 62 72 68 78 99 124 149 239 254 246 247 240 233 235 238 236 238 232 230 224 229 247 256
278 219 257 10 315 80 114 38 23 21 35 54 84 93 102 96 92 93 89 82 73 69 64 63 49 47 80 122 147 212 253 256 251 251 252 254 257 247 251 250 189 268 258 260
93 342 346 345 2 87 107 80 48 44 45 57 90 103 103 97 96 89 83 79 73 76 72 69 74 77 86 80 126 160 201 185 255 337 320 292 275 276 257 239 231 239 236 252
79 357 341 319 309 348 101 88 66 59 58 57 83 116 102 100 97 97 95 90 84 78 70 61 61 74 74 67 88 83 76 73 78 52 37 344 290 317 285 261 246 236 246 254
338 298 335 287 264 348 118 93 79 67 65 83 60 76 108 100 98 99 96 88 76 69 68 61 38 50 76 77 83 82 72 83 44 78 40 216 208 315 315 283 270 268 269 269
195 170 179 275 250 30 142 140 114 110 104 87 96 89 100 86 91 88 80 89 81 64 50 40 30 33 42 56 67 80 86 87 78 78 194 66 49 88 350 17 28 30 31 84
142 166 213 224 202 63 105 131 130 124 125 122 107 98 76 73 76 84 77 69 61 54 47 40 18 10 11 32 62 345 32 54 47 71 88 80 68 26 359 335 347 351 2 17
123 102 102 195 213 85 86 94 110 111 112 109 133 132 116 95 73 53 53 49 44 41 52 48 36 39 9 349 346 357 57 48 14 7 304 265 241 240 272 295 297 307 304 303
208 260 131 215 156 109 97 94 87 89 84 77 84 84 77 71 69 71 64 50 65 69 264 271 260 216 252 314 325 324 323 312 354 313 315 309 298 306 284 270 280 284 274 274
173 149 139 136 121 126 120 114 110 107 101 102 84 71 74 89 94 76 61 1 0 3 314 288 274 270 267 256 280 300 318 286 326 302 301 324 287 284 277 274 282 294 293 283
151 128 110 129 169 162 169 135 119 109 110 97 89 83 93 90 79 60 56 35 42 30 344 335 324 302 275 262 260 260 265 269 279 293 275 283 288 270 272 271 269 272 274 277
143 122 153 149 122 113 109 113 121 116 102 97 89 81 63 49 45 34 51 28 34 24 13 12 358 331 295 286 278 268 260 254 257 273 272 277 304 293 259 255 251 264 262 271
184 150 138 134 141 143 138 137 139 139 130 112 76 55 33 19 15 6 18 32 326 7 6 4 2 3 336 313 304 282 273 273 273 264 275 280 284 293 315 267 275 281 261 258
167 153 151 153 138 144 147 149 146 133 135 119 94 18 317 291 302 317 321 317 303 332 342 353 4 13 11 3 350 331 280 266 272 274 282 277 279 286 301 311 289 254 252 260
176 167 167 166 162 154 170 204 197 220 243 233 270 278 294 307 313 321 312 315 316 310 315 327 353 360 8 9 1 343 310 282 272 262 269 286 287 287 281 296 314 15 359 306
186 187 187 192 198 215 220 227 243 243 245 264 279 282 290 295 304 311 307 303 300 285 296 310 332 343 349 349 347 358 7 340 320 298 294 294 284 285 282 280 299 281 314 326
199 201 203 205 217 241 254 252 252 256 264 269 274 277 282 288 292 290 299 307 284 278 288 305 313 312 316 326 340 339 336 335 342 344 322 305 295 296 285 277 291 289 283 294
214 206 215 228 235 244 251 255 255 255 260 263 266 269 276 274 281 288 296 280 282 287 307 320 308 306 308 308 310 319 323 330 329 323 326 351 316 299 282 279 283 272 282 281
218 221 226 230 243 245 253 253 257 260 254 258 265 268 265 268 262 285 269 266 274 284 286 299 317 308 294 293 299 306 304 303 309 308 304 296 289 279 279 287 285 284 282 284
217 230 238 242 253 246 257 268 263 266 263 259 276 277 299 331 279 274 258 270 263 269 268 282 292 305 301 285 292 291 292 298 295 289 288 290 296 294 294 293 298 292 278 281
239 243 229 240 253 263 262 257 249 260 272 257 258 272 276 285 277 291 296 269 263 271 286 291 293 304 305 308 309 307 299 298 294 300 301 306 301 297 296 293 295 292 286 292
Wind_Speed_850mb
33 39 32 36 44 41 33 31 19 22 12 10 25 18 34 39 67 57 51 46 45 47 76 85 93 99 95 94 94 85 78 74 66 54 60 62 60 59 67 78 74 68 64 63
35 35 36 40 49 36 31 35 17 8 8 35 55 52 61 53 44 60 61 49 53 61 61 55 42 88 98 96 97 88 83 79 70 62 59 62 62 55 56 60 72 72 66 58
21 26 36 22 21 38 40 37 27 14 15 38 25 39 31 34 42 32 29 37 41 62 72 80 50 57 64 85 90 86 80 76 70 65 59 57 61 60 58 58 57 56 57 54
23 24 23 16 29 25 28 33 54 10 32 30 44 44 53 52 37 24 5 9 25 32 42 35 32 45 51 47 66 67 68 66 65 63 59 56 59 63 64 59 58 59 53 53
17 17 27 38 16 13 16 27 42 24 22 46 61 61 39 31 30 23 17 21 31 26 26 16 22 15 34 37 37 42 38 37 50 56 56 60 63 67 66 65 66 59 60 55
19 13 22 5 23 23 17 3 47 49 2 12 18 11 6 13 24 22 28 29 26 25 23 25 24 16 29 29 26 38 37 37 38 36 45 53 59 64 69 70 69 67 65 53
24 18 11 6 25 26 9 12 45 52 47 20 12 24 39 27 26 23 24 29 26 23 16 16 14 14 16 15 16 31 41 38 35 38 45 55 59 63 68 70 62 43 55 50
11 16 22 41 16 2 11 22 36 38 46 44 45 40 37 31 30 30 31 32 33 32 32 26 19 11 7 4 5 8 26 29 37 35 38 36 43 46 54 47 47 41 59 55
2 9 20 28 10 8 5 40 42 44 29 31 29 34 35 30 25 27 32 35 37 37 35 38 28 24 21 18 8 6 3 3 3 7 16 24 32 21 23 27 36 43 61 56
7 10 28 31 27 4 22 42 45 36 23 17 8 29 34 45 46 43 41 40 38 38 37 33 27 23 17 17 19 22 18 18 15 15 5 7 6 13 17 22 25 29 30 34
4 3 34 39 29 10 24 37 48 43 25 18 15 18 30 37 39 39 39 33 29 29 28 26 24 23 16 20 23 28 24 18 16 17 10 8 4 8 25 21 24 21 19 19
8 15 10 46 20 5 27 46 46 42 21 20 19 22 23 34 37 38 35 35 33 31 33 32 30 29 22 13 14 15 16 18 25 21 11 8 13 14 4 10 15 13 9 5
13 17 17 29 16 14 21 33 47 49 38 34 22 18 21 31 34 29 30 29 26 26 22 20 24 31 30 16 7 2 7 5 6 12 17 21 15 9 14 13 15 15 12 12
5 14 7 15 7 22 25 27 26 34 33 28 21 19 19 20 21 23 24 19 12 11 9 9 9 14 19 30 26 12 8 12 15 10 9 12 16 16 12 15 23 20 16 16
3 15 6 4 13 22 22 13 24 25 19 16 12 20 23 26 20 17 13 9 7 4 3 7 7 4 3 7 19 25 18 4 13 17 22 25 20 19 19 26 22 26 25 32
8 26 20 18 14 15 16 18 19 20 19 19 20 19 18 15 11 10 5 7 8 11 12 14 19 20 21 20 19 18 21 12 20 24 22 26 25 24 27 20 23 20 22 27
12 9 19 16 22 20 19 20 19 15 16 17 21 18 14 11 11 11 12 13 15 11 15 21 23 21 22 31 25 27 23 23 24 14 25 30 35 27 32 31 31 27 27 25
12 12 18 17 20 22 20 20 20 17 14 13 13 14 12 17 18 15 16 17 14 13 26 33 26 19 20 27 27 28 30 32 35 31 26 25 23 23 44 34 34 35 37 30
20 17 14 17 14 17 17 16 12 10 14 11 9 11 12 16 18 16 20 13 8 18 30 42 41 27 20 24 23 31 36 39 39 50 55 57 49 33 24 40 50 33 31 38
10 26 20 15 13 14 15 10 6 8 5 3 1 1 3 7 11 11 16 17 22 17 25 37 45 41 39 37 35 27 22 27 31 39 48 55 59 48 33 28 22 28 29 30
17 17 17 17 14 10 9 9 9 7 8 8 8 10 13 16 19 21 18 19 21 21 24 34 38 31 33 38 42 29 16 24 30 40 44 38 35 34 31 24 14 5 14 20
19 18 17 15 15 13 12 13 16 15 16 18 17 18 21 24 26 31 28 28 32 31 29 32 30 24 25 31 34 36 38 31 27 27 29 32 34 36 35 32 33 30 21 27
19 18 17 17 15 16 17 16 17 21 23 24 24 27 30 32 32 29 25 27 19 23 26 32 28 22 24 30 33 39 35 31 32 30 26 27 33 41 47 46 42 49 64 54
15 19 16 17 17 17 19 23 25 28 30 32 36 37 31 36 33 29 26 14 26 22 27 33 17 24 32 35 37 36 37 35 33 31 26 21 17 30 42 34 25 34 38 42
13 14 17 18 19 23 29 33 35 34 33 35 42 42 43 41 39 35 35 37 33 31 37 31 27 31 38 44 38 41 42 39 40 45 46 45 41 35 34 39 45 40 37 37
12 16 20 26 23 28 34 35 41 43 46 32 31 20 15 19 28 39 45 27 32 43 39 36 33 33 45 49 48 44 44 45 49 53 45 44 46 45 43 42 50 49 55 53
18 20 26 22 29 33 34 30 29 32 33 23 19 25 28 32 35 34 24 25 36 33 29 37 36 37 39 39 47 47 40 36 37 42 39 42 40 39 38 43 45 47 53 58
Wind_Direction_850mb
297 290 318 309 302 301 309 298 220 244 266 236 189 128 96 77 50 7 347 79 109 163 181 182 186 193 201 206 209 212 212 212 217 225 229 228 228 230 228 227 234 235 239 249
313 309 318 300 305 290 292 291 261 252 355 88 94 65 69 77 86 20 351 21 79 107 154 155 181 198 202 205 207 209 210 215 218 224 228 231 231 231 231 229 231 240 245 246
280 314 315 301 349 360 341 305 289 207 136 110 69 94 101 91 84 55 344 346 68 95 114 142 200 194 196 205 207 209 212 215 218 222 227 234 234 235 233 234 237 236 241 249
272 314 290 261 36 17 331 20 352 43 97 107 102 88 86 117 141 169 201 49 59 96 105 112 132 147 163 171 194 207 214 217 221 223 229 237 238 236 234 234 235 239 239 247
247 263 279 293 19 14 6 322 358 10 80 106 105 87 56 96 126 133 105 72 69 77 112 140 168 149 163 180 193 194 199 216 223 226 234 239 240 239 232 233 233 230 234 244
254 275 270 47 4 321 290 265 351 350 207 146 176 87 132 98 85 70 75 66 66 80 80 95 113 183 192 217 262 240 241 232 228 228 238 235 237 234 228 227 229 236 238 249
225 244 264 6 329 301 22 316 330 3 17 63 66 91 127 117 102 85 71 73 68 62 72 68 78 99 124 149 239 254 246 247 240 233 235 238 236 238 232 230 224 229 247 256
278 219 257 10 315 80 114 38 23 21 35 54 84 93 102 96 92 93 89 82 73 69 64 63 49 47 80 122 147 212 253 256 251 251 252 254 257 247 251 250 189 268 258 260
93 342 346 345 2 87 107 80 48 44 45 57 90 103 103 97 96 89 83 79 73 76 72 69 74 77 86 80 126 160 201 185 255 337 320 292 275 276 257 239 231 239 236 252
79 357 341 319 309 348 101 88 66 59 58 57 83 116 102 100 97 97 95 90 84 78 70 61 61 74 74 67 88 83 76 73 78 52 37 344 290 317 285 261 246 236 246 254
338 298 335 287 264 348 118 93 79 67 65 83 60 76 108 100 98 99 96 88 76 69 68 61 38 50 76 77 83 82 72 83 44 78 40 216 208 315 315 283 270 268 269 269
195 170 179 275 250 30 142 140 114 110 104 87 96 89 100 86 91 88 80 89 81 64 50 40 30 33 42 56 67 80 86 87 78 78 194 66 49 88 350 17 28 30 31 84
142 166 213 224 202 63 105 131 130 124 125 122 107 98 76 73 76 84 77 69 61 54 47 40 18 10 11 32 62 345 32 54 47 71 88 80 68 26 359 335 347 351 2 17
123 102 102 195 213 85 86 94 110 111 112 109 133 132 116 95 73 53 53 49 44 41 52 48 36 39 9 349 346 357 57 48 14 7 304 265 241 240 272 295 297 307 304 303
208 260 131 215 156 109 97 94 87 89 84 77 84 84 77 71 69 71 64 50 65 69 264 271 260 216 252 314 325 324 323 312 354 313 315 309 298 306 284 270 280 284 274 274
173 149 139 136 121 126 120 114 110 107 101 102 84 71 74 89 94 76 61 1 0 3 314 288 274 270 267 256 280 300 318 286 326 302 301 324 287 284 277 274 282 294 293 283
151 128 110 129 169 162 169 135 119 109 110 97 89 83 93 90 79 60 56 35 42 30 344 335 324 302 275 262 260 260 265 269 279 293 275 283 288 270 272 271 269 272 274 277
143 122 153 149 122 113 109 113 121 116 102 97 89 81 63 49 45 34 51 28 34 24 13 12 358 331 295 286 278 268 260 254 257 273 272 277 304 293 259 255 251 264 262 271
184 150 138 134 141 143 138 137 139 139 130 112 76 55 33 19 15 6 18 32 326 7 6 4 2 3 336 313 304 282 273 273 273 264 275 280 284 293 315 267 275 281 261 258
167 153 151 153 138 144 147 149 146 133 135 119 94 18 317 291 302 317 321 317 303 332 342 353 4 13 11 3 350 331 280 266 272 274 282 277 279 286 301 311 289 254 252 260
176 167 167 166 162 154 170 204 197 220 243 233 270 278 294 307 313 321 312 315 316 310 315 327 353 360 8 9 1 343 310 282 272 262 269 286 287 287 281 296 314 15 359 306
186 187 187 192 198 215 220 227 243 243 245 264 279 282 290 295 304 311 307 303 300 285 296 310 332 343 349 349 347 358 7 340 320 298 294 294 284 285 282 280 299 281 314 326
199 201 203 205 217 241 254 252 252 256 264 269 274 277 282 288 292 290 299 307 284 278 288 305 313 312 316 326 340 339 336 335 342 344 322 305 295 296 285 277 291 289 283 294
214 206 215 228 235 244 251 255 255 255 260 263 266 269 276 274 281 288 296 280 282 287 307 320 308 306 308 308 310 319 323 330 329 323 326 351 316 299 282 279 283 272 282 281
218 221 226 230 243 245 253 253 257 260 254 258 265 268 265 268 262 285 269 266 274 284 286 299 317 308 294 293 299 306 304 303 309 308 304 296 289 279 279 287 285 284 282 284
217 230 238 242 253 246 257 268 263 266 263 259 276 277 299 331 279 274 258 270 263 269 268 282 292 305 301 285 292 291 292 298 295 289 288 290 296 294 294 293 298 292 278 281
239 243 229 240 253 263 262 257 249 260 272 257 258 272 276 285 277 291 296 269 263 271 286 291 293 304 305 308 309 307 299 298 294 300 301 306 301 297 296 293 295 292 286 292